Time,TemperatureF,DewpointF,PressureIn,WindDirection,WindDirectionDegrees,WindSpeedMPH,WindSpeedGustMPH,Humidity,HourlyPrecipIn,Conditions,Clouds,dailyrainin,SoftwareType,DateUTC
2013-03-16 00:00:00,51.8,32.3,30.03,NE,50,0.7,3.8,47,0.00,,,0.00,WSDL version 420,2013-03-16 04:00:00,
2013-03-16 00:05:00,52.1,32.5,30.00,NE,48,1.1,2.9,47,0.00,,,0.00,WSDL version 420,2013-03-16 04:05:00,
2013-03-16 00:10:00,52.5,32.8,30.00,SW,222,0.8,3.6,46,0.00,,,0.00,WSDL version 420,2013-03-16 04:10:00,
2013-03-16 00:15:00,52.6,32.5,30.00,North,11,1.1,3.6,46,0.00,,,0.00,WSDL version 420,2013-03-16 04:15:00,
2013-03-16 00:20:00,52.7,32.6,30.00,NE,51,1.5,4.5,47,0.00,,,0.00,WSDL version 420,2013-03-16 04:20:00,
2013-03-16 00:25:00,52.5,32.3,30.00,SSW,208,1.4,4.5,46,0.00,,,0.00,WSDL version 420,2013-03-16 04:25:00,
2013-03-16 00:30:00,52.5,32.3,29.99,SE,143,2.2,3.4,46,0.00,,,0.00,WSDL version 420,2013-03-16 04:30:00,
2013-03-16 00:35:00,51.7,32.0,30.00,NW,318,0.5,3.4,47,0.00,,,0.00,WSDL version 420,2013-03-16 04:35:00,
2013-03-16 00:40:00,51.7,32.1,30.00,East,93,1.1,3.8,47,0.00,,,0.00,WSDL version 420,2013-03-16 04:40:00,
2013-03-16 00:45:00,51.4,31.8,29.99,East,101,0.6,3.8,47,0.00,,,0.00,WSDL version 420,2013-03-16 04:45:00,
2013-03-16 00:50:00,51.2,31.7,29.99,WSW,239,0.7,2.7,47,0.00,,,0.00,WSDL version 420,2013-03-16 04:50:00,
2013-03-16 00:55:00,50.4,31.1,30.00,NNW,346,0.4,3.1,47,0.00,,,0.00,WSDL version 420,2013-03-16 04:55:00,
2013-03-16 01:00:00,50.3,31.3,30.00,ESE,113,0.0,3.1,47,0.00,,,0.00,WSDL version 420,2013-03-16 05:00:00,
2013-03-16 01:05:00,49.7,30.8,30.00,NE,35,1.4,3.6,49,0.00,,,0.00,WSDL version 420,2013-03-16 05:05:00,
2013-03-16 01:10:00,49.5,30.9,30.00,NW,313,0.0,3.6,48,0.00,,,0.00,WSDL version 420,2013-03-16 05:10:00,
2013-03-16 01:16:00,49.5,30.8,29.99,SE,135,0.0,2.0,48,0.00,,,0.00,WSDL version 420,2013-03-16 05:16:00,
2013-03-16 01:20:00,48.9,30.7,29.99,North,358,0.0,1.1,49,0.00,,,0.00,WSDL version 420,2013-03-16 05:20:00,
2013-03-16 01:25:00,48.6,30.3,29.99,West,270,0.0,1.6,49,0.00,,,0.00,WSDL version 420,2013-03-16 05:25:00,
2013-03-16 01:30:00,48.0,30.0,30.00,West,270,0.0,2.2,50,0.00,,,0.00,WSDL version 420,2013-03-16 05:30:00,
2013-03-16 01:35:00,47.4,29.7,30.00,WNW,283,0.6,2.7,50,0.00,,,0.00,WSDL version 420,2013-03-16 05:35:00,
2013-03-16 01:40:00,47.0,30.1,30.00,WNW,293,0.0,2.7,53,0.00,,,0.00,WSDL version 420,2013-03-16 05:40:00,
2013-03-16 01:45:00,46.7,29.7,30.00,West,270,0.0,2.2,51,0.00,,,0.00,WSDL version 420,2013-03-16 05:45:00,
2013-03-16 01:51:00,46.3,29.6,29.96,West,270,0.6,1.3,54,0.00,,,0.00,WSDL version 420,2013-03-16 05:51:00,
2013-03-16 01:55:00,46.2,29.9,29.96,West,280,0.4,2.2,53,0.00,,,0.00,WSDL version 420,2013-03-16 05:55:00,
2013-03-16 02:00:00,46.1,29.9,29.96,WNW,293,0.0,2.2,54,0.00,,,0.00,WSDL version 420,2013-03-16 06:00:00,
2013-03-16 02:05:00,45.9,29.7,29.96,West,268,0.0,3.1,53,0.00,,,0.00,WSDL version 420,2013-03-16 06:05:00,
2013-03-16 02:10:00,45.7,30.0,29.96,NNW,340,0.0,3.1,54,0.00,,,0.00,WSDL version 420,2013-03-16 06:10:00,
2013-03-16 02:15:00,46.0,30.5,29.96,SW,235,0.0,2.9,55,0.00,,,0.00,WSDL version 420,2013-03-16 06:15:00,
2013-03-16 02:20:00,45.7,30.0,29.99,West,270,0.0,2.9,54,0.00,,,0.00,WSDL version 420,2013-03-16 06:20:00,
2013-03-16 02:25:00,45.6,30.3,29.99,NNW,338,0.0,2.0,55,0.00,,,0.00,WSDL version 420,2013-03-16 06:25:00,
2013-03-16 02:30:00,46.0,30.8,29.99,WNW,295,0.0,2.2,55,0.00,,,0.00,WSDL version 420,2013-03-16 06:30:00,
2013-03-16 02:35:00,45.9,31.0,29.96,WNW,296,0.4,3.1,56,0.00,,,0.00,WSDL version 420,2013-03-16 06:35:00,
2013-03-16 02:40:00,45.7,31.0,29.96,West,263,0.0,3.4,56,0.00,,,0.00,WSDL version 420,2013-03-16 06:40:00,
2013-03-16 02:45:00,45.4,30.6,29.96,WNW,293,0.4,3.4,56,0.00,,,0.00,WSDL version 420,2013-03-16 06:45:00,
2013-03-16 02:50:00,45.2,30.5,29.96,West,259,0.7,3.1,57,0.00,,,0.00,WSDL version 420,2013-03-16 06:50:00,
2013-03-16 02:55:00,45.0,30.2,29.96,West,278,1.1,3.4,56,0.00,,,0.00,WSDL version 420,2013-03-16 06:55:00,
2013-03-16 03:00:00,45.2,30.9,29.96,WSW,244,0.0,3.4,57,0.00,,,0.00,WSDL version 420,2013-03-16 07:00:00,
2013-03-16 03:05:00,45.2,31.0,29.96,NW,312,0.7,2.7,58,0.00,,,0.00,WSDL version 420,2013-03-16 07:05:00,
2013-03-16 03:10:00,45.5,31.8,29.96,SSE,152,1.9,2.9,59,0.00,,,0.00,WSDL version 420,2013-03-16 07:10:00,
2013-03-16 03:15:00,45.4,31.6,29.96,WNW,295,0.0,4.0,59,0.00,,,0.00,WSDL version 420,2013-03-16 07:15:00,
2013-03-16 03:20:00,45.8,32.8,29.96,NW,318,1.8,4.0,60,0.00,,,0.00,WSDL version 420,2013-03-16 07:20:00,
2013-03-16 03:25:00,45.9,32.9,29.95,West,278,1.5,3.8,61,0.00,,,0.00,WSDL version 420,2013-03-16 07:25:00,
2013-03-16 03:30:00,45.7,32.4,29.95,NW,312,2.3,4.3,60,0.00,,,0.00,WSDL version 420,2013-03-16 07:30:00,
2013-03-16 03:35:00,45.6,32.1,29.96,NW,318,0.4,4.3,59,0.00,,,0.00,WSDL version 420,2013-03-16 07:35:00,
2013-03-16 03:40:00,45.8,32.3,29.95,SW,214,1.0,3.1,59,0.00,,,0.00,WSDL version 420,2013-03-16 07:40:00,
2013-03-16 03:45:00,45.6,32.2,29.95,North,360,1.8,3.4,61,0.00,,,0.00,WSDL version 420,2013-03-16 07:45:00,
2013-03-16 03:50:00,45.9,32.6,29.95,South,190,0.4,3.4,59,0.00,,,0.00,WSDL version 420,2013-03-16 07:50:00,
2013-03-16 03:55:00,45.7,32.3,29.96,NNW,343,1.2,2.5,60,0.00,,,0.00,WSDL version 420,2013-03-16 07:55:00,
2013-03-16 04:00:00,45.9,33.0,29.95,NNW,329,0.9,2.5,60,0.00,,,0.00,WSDL version 420,2013-03-16 08:00:00,
2013-03-16 04:05:00,45.8,32.7,29.96,West,270,1.2,2.7,61,0.00,,,0.00,WSDL version 420,2013-03-16 08:05:00,
2013-03-16 04:10:00,46.1,33.3,29.96,North,350,0.8,3.1,60,0.00,,,0.00,WSDL version 420,2013-03-16 08:10:00,
2013-03-16 04:15:00,46.8,33.8,29.96,SE,129,2.6,5.6,61,0.00,,,0.00,WSDL version 420,2013-03-16 08:15:00,
2013-03-16 04:20:00,48.2,34.9,29.95,WNW,295,2.8,6.9,59,0.00,,,0.00,WSDL version 420,2013-03-16 08:20:00,
2013-03-16 04:25:00,49.1,34.9,29.95,NNW,329,3.6,6.9,57,0.00,,,0.00,WSDL version 420,2013-03-16 08:25:00,
2013-03-16 04:30:00,48.7,33.8,29.95,SE,125,2.4,6.0,56,0.00,,,0.00,WSDL version 420,2013-03-16 08:30:00,
2013-03-16 04:35:00,48.9,34.1,29.95,SSE,151,1.6,4.7,56,0.00,,,0.00,WSDL version 420,2013-03-16 08:35:00,
2013-03-16 04:40:00,49.7,34.5,29.95,East,85,2.8,5.4,55,0.00,,,0.00,WSDL version 420,2013-03-16 08:40:00,
2013-03-16 04:45:00,50.1,34.3,29.95,ESE,118,2.2,5.4,54,0.00,,,0.00,WSDL version 420,2013-03-16 08:45:00,
2013-03-16 04:50:00,51.1,34.6,29.92,North,10,3.1,8.1,53,0.00,,,0.00,WSDL version 420,2013-03-16 08:50:00,
2013-03-16 04:55:00,51.5,34.4,29.92,NE,48,2.0,8.1,52,0.00,,,0.00,WSDL version 420,2013-03-16 08:55:00,
2013-03-16 05:00:00,51.2,33.8,29.92,SSE,163,3.7,6.3,51,0.00,,,0.00,WSDL version 420,2013-03-16 09:00:00,
2013-03-16 05:05:00,51.5,33.9,29.92,East,93,1.5,6.3,50,0.00,,,0.00,WSDL version 420,2013-03-16 09:05:00,
2013-03-16 05:10:00,52.2,34.1,29.92,ENE,77,2.9,6.3,50,0.00,,,0.00,WSDL version 420,2013-03-16 09:10:00,
2013-03-16 05:15:00,52.4,34.0,29.92,SE,128,3.5,5.8,49,0.00,,,0.00,WSDL version 420,2013-03-16 09:15:00,
2013-03-16 05:20:00,52.8,34.0,29.92,NNE,23,4.8,8.7,48,0.00,,,0.00,WSDL version 420,2013-03-16 09:20:00,
2013-03-16 05:25:00,53.5,34.1,29.91,NE,50,3.5,8.7,47,0.00,,,0.00,WSDL version 420,2013-03-16 09:25:00,
2013-03-16 05:30:00,53.3,34.0,29.91,SW,225,2.8,6.3,48,0.00,,,0.00,WSDL version 420,2013-03-16 09:30:00,
2013-03-16 05:35:00,53.1,33.8,29.92,East,98,3.5,10.3,47,0.00,,,0.00,WSDL version 420,2013-03-16 09:35:00,
2013-03-16 05:40:00,53.9,34.1,29.91,NE,38,4.4,10.5,47,0.00,,,0.00,WSDL version 420,2013-03-16 09:40:00,
2013-03-16 05:45:00,53.8,33.8,29.91,SE,127,4.1,10.7,46,0.00,,,0.00,WSDL version 420,2013-03-16 09:45:00,
2013-03-16 05:50:00,53.6,33.4,29.92,ENE,73,4.0,10.7,46,0.00,,,0.00,WSDL version 420,2013-03-16 09:50:00,
2013-03-16 05:55:00,53.6,33.3,29.92,ESE,113,3.5,6.5,46,0.00,,,0.00,WSDL version 420,2013-03-16 09:55:00,
2013-03-16 06:00:00,54.1,33.8,29.92,East,101,3.4,7.4,46,0.00,,,0.00,WSDL version 420,2013-03-16 10:00:00,
2013-03-16 06:05:00,54.4,34.0,29.95,ENE,58,3.7,7.4,46,0.00,,,0.00,WSDL version 420,2013-03-16 10:05:00,
2013-03-16 06:10:00,54.6,33.7,29.95,ENE,68,3.5,6.3,45,0.00,,,0.00,WSDL version 420,2013-03-16 10:10:00,
2013-03-16 06:15:00,54.5,33.6,29.95,ESE,104,2.0,6.3,45,0.00,,,0.00,WSDL version 420,2013-03-16 10:15:00,
2013-03-16 06:20:00,54.2,33.3,29.95,East,82,3.6,5.8,45,0.00,,,0.00,WSDL version 420,2013-03-16 10:20:00,
2013-03-16 06:25:00,53.9,33.1,29.95,East,85,2.6,4.9,45,0.00,,,0.00,WSDL version 420,2013-03-16 10:25:00,
2013-03-16 06:30:00,53.9,33.0,29.95,NNE,28,1.8,8.5,45,0.00,,,0.00,WSDL version 420,2013-03-16 10:30:00,
2013-03-16 06:35:00,53.8,33.0,29.95,ENE,62,2.7,8.5,45,0.00,,,0.00,WSDL version 420,2013-03-16 10:35:00,
2013-03-16 06:40:00,54.4,33.5,29.95,NE,51,3.0,6.3,45,0.00,,,0.00,WSDL version 420,2013-03-16 10:40:00,
2013-03-16 06:45:00,54.1,33.3,29.95,ENE,60,1.4,6.3,45,0.00,,,0.00,WSDL version 420,2013-03-16 10:45:00,
2013-03-16 06:50:00,54.0,33.2,29.95,East,79,3.0,8.7,45,0.00,,,0.00,WSDL version 420,2013-03-16 10:50:00,
2013-03-16 06:55:00,54.0,33.2,29.95,East,96,3.8,8.7,45,0.00,,,0.00,WSDL version 420,2013-03-16 10:55:00,
2013-03-16 07:00:00,53.9,33.1,29.95,NE,51,3.0,7.4,45,0.00,,,0.00,WSDL version 420,2013-03-16 11:00:00,
2013-03-16 07:05:00,53.5,32.9,29.95,NNE,23,1.2,7.4,46,0.00,,,0.00,WSDL version 420,2013-03-16 11:05:00,
2013-03-16 07:10:00,53.3,32.9,29.96,ENE,65,3.8,5.4,45,0.00,,,0.00,WSDL version 420,2013-03-16 11:10:00,
2013-03-16 07:15:00,53.3,32.9,29.96,East,79,2.0,6.3,46,0.00,,,0.00,WSDL version 420,2013-03-16 11:15:00,
2013-03-16 07:20:00,52.6,32.5,29.96,NNW,333,3.2,6.3,46,0.00,,,0.00,WSDL version 420,2013-03-16 11:20:00,
2013-03-16 07:25:00,53.1,32.8,29.96,ENE,70,3.3,5.6,46,0.00,,,0.00,WSDL version 420,2013-03-16 11:25:00,
2013-03-16 07:30:00,53.1,32.8,29.96,ESE,115,1.8,6.5,46,0.00,,,0.00,WSDL version 420,2013-03-16 11:30:00,
2013-03-16 07:35:00,52.5,32.4,29.96,East,85,4.2,6.5,46,0.00,,,0.00,WSDL version 420,2013-03-16 11:35:00,
2013-03-16 07:40:00,52.7,32.8,29.96,ESE,113,1.9,6.3,46,0.00,,,0.00,WSDL version 420,2013-03-16 11:40:00,
2013-03-16 07:45:00,53.1,32.9,29.96,SSW,203,2.8,5.4,46,0.00,,,0.00,WSDL version 420,2013-03-16 11:45:00,
2013-03-16 07:50:00,52.1,32.1,29.96,ENE,62,2.2,4.7,47,0.00,,,0.00,WSDL version 420,2013-03-16 11:50:00,
2013-03-16 07:55:00,51.5,32.0,29.96,NE,39,2.9,4.9,47,0.00,,,0.00,WSDL version 420,2013-03-16 11:55:00,
2013-03-16 08:00:00,52.2,32.6,29.96,SE,133,1.6,4.9,47,0.00,,,0.00,WSDL version 420,2013-03-16 12:00:00,
2013-03-16 08:05:00,52.0,32.4,29.96,ENE,64,2.1,5.6,47,0.00,,,0.00,WSDL version 420,2013-03-16 12:05:00,
2013-03-16 08:10:00,52.9,33.1,29.96,ENE,73,3.4,5.6,46,0.00,,,0.00,WSDL version 420,2013-03-16 12:10:00,
2013-03-16 08:15:00,53.9,33.5,29.96,ENE,62,2.3,6.0,46,0.00,,,0.00,WSDL version 420,2013-03-16 12:15:00,
2013-03-16 08:20:00,54.2,33.2,29.96,SE,128,4.9,11.0,44,0.00,,,0.00,WSDL version 420,2013-03-16 12:20:00,
2013-03-16 08:25:00,54.1,33.0,29.96,East,90,3.6,11.0,44,0.00,,,0.00,WSDL version 420,2013-03-16 12:25:00,
2013-03-16 08:30:00,54.4,32.9,29.97,East,90,2.3,6.5,43,0.00,,,0.00,WSDL version 420,2013-03-16 12:30:00,
2013-03-16 08:35:00,54.7,32.8,29.93,ESE,110,3.7,6.3,43,0.00,,,0.00,WSDL version 420,2013-03-16 12:35:00,
2013-03-16 08:40:00,54.5,32.9,29.93,SE,125,2.7,6.0,45,0.00,,,0.00,WSDL version 420,2013-03-16 12:40:00,
2013-03-16 08:45:00,54.4,32.7,29.93,SE,138,3.1,6.7,43,0.00,,,0.00,WSDL version 420,2013-03-16 12:45:00,
2013-03-16 08:50:00,54.5,33.0,29.97,South,177,3.0,6.7,44,0.00,,,0.00,WSDL version 420,2013-03-16 12:50:00,
2013-03-16 08:55:00,54.7,32.8,29.97,SE,133,3.3,6.3,43,0.00,,,0.00,WSDL version 420,2013-03-16 12:55:00,
2013-03-16 09:00:00,55.2,32.9,29.97,East,79,2.1,5.4,42,0.00,,,0.00,WSDL version 420,2013-03-16 13:00:00,
2013-03-16 09:05:00,55.7,32.7,29.97,North,8,2.7,6.7,42,0.00,,,0.00,WSDL version 420,2013-03-16 13:05:00,
2013-03-16 09:10:00,55.9,33.0,29.97,South,173,2.2,7.4,42,0.00,,,0.00,WSDL version 420,2013-03-16 13:10:00,
2013-03-16 09:15:00,56.8,32.9,29.97,SE,141,6.0,10.1,40,0.00,,,0.00,WSDL version 420,2013-03-16 13:15:00,
2013-03-16 09:20:00,56.8,32.8,29.97,SE,135,2.5,10.1,40,0.00,,,0.00,WSDL version 420,2013-03-16 13:20:00,
2013-03-16 09:25:00,57.1,32.6,29.97,SSE,158,5.0,10.1,39,0.00,,,0.00,WSDL version 420,2013-03-16 13:25:00,
2013-03-16 09:30:00,57.2,32.5,29.97,NNE,20,2.3,10.1,39,0.00,,,0.00,WSDL version 420,2013-03-16 13:30:00,
2013-03-16 09:35:00,57.4,32.6,29.97,SW,225,2.2,12.8,39,0.00,,,0.00,WSDL version 420,2013-03-16 13:35:00,
2013-03-16 09:40:00,57.8,32.8,29.97,East,100,2.8,12.8,39,0.00,,,0.00,WSDL version 420,2013-03-16 13:40:00,
2013-03-16 09:45:00,58.1,33.2,29.97,SSE,158,3.7,8.7,38,0.00,,,0.00,WSDL version 420,2013-03-16 13:45:00,
2013-03-16 09:50:00,59.0,33.2,29.96,SE,138,4.9,10.7,38,0.00,,,0.00,WSDL version 420,2013-03-16 13:50:00,
2013-03-16 09:55:00,60.0,34.1,29.96,SSE,148,4.3,10.7,37,0.00,,,0.00,WSDL version 420,2013-03-16 13:55:00,
2013-03-16 10:00:00,60.4,34.0,29.96,ESE,121,2.3,8.5,37,0.00,,,0.00,WSDL version 420,2013-03-16 14:00:00,
2013-03-16 10:05:00,60.7,34.3,29.96,NNW,330,2.2,7.4,37,0.00,,,0.00,WSDL version 420,2013-03-16 14:05:00,
2013-03-16 10:10:00,61.4,34.2,29.96,East,101,1.8,7.4,36,0.00,,,0.00,WSDL version 420,2013-03-16 14:10:00,
2013-03-16 10:15:00,61.2,34.1,29.96,SSE,150,2.3,8.1,36,0.00,,,0.00,WSDL version 420,2013-03-16 14:15:00,
2013-03-16 10:20:00,61.1,33.9,29.96,SE,135,2.3,8.1,36,0.00,,,0.00,WSDL version 420,2013-03-16 14:20:00,
2013-03-16 10:25:00,61.5,34.4,29.96,South,174,0.8,6.9,37,0.00,,,0.00,WSDL version 420,2013-03-16 14:25:00,
2013-03-16 10:30:00,62.5,35.2,29.96,ESE,115,2.6,7.6,35,0.00,,,0.00,WSDL version 420,2013-03-16 14:30:00,
2013-03-16 10:35:00,63.5,35.4,29.96,SSW,211,2.5,7.6,35,0.00,,,0.00,WSDL version 420,2013-03-16 14:35:00,
2013-03-16 10:40:00,64.5,36.1,29.96,ESE,118,3.6,8.7,35,0.00,,,0.00,WSDL version 420,2013-03-16 14:40:00,
2013-03-16 10:45:00,65.5,36.5,29.95,SE,143,2.5,8.7,34,0.00,,,0.00,WSDL version 420,2013-03-16 14:45:00,
2013-03-16 10:50:00,65.7,36.4,29.92,NE,43,5.1,12.3,34,0.00,,,0.00,WSDL version 420,2013-03-16 14:50:00,
2013-03-16 10:55:00,66.0,36.2,29.92,SSE,153,4.0,12.3,33,0.00,,,0.00,WSDL version 420,2013-03-16 14:55:00,
2013-03-16 11:00:00,66.3,36.4,29.92,SE,146,4.4,9.8,33,0.00,,,0.00,WSDL version 420,2013-03-16 15:00:00,
2013-03-16 11:05:00,66.3,36.3,29.95,WSW,239,2.3,15.4,33,0.00,,,0.00,WSDL version 420,2013-03-16 15:05:00,
2013-03-16 11:10:00,66.2,36.3,29.95,SE,135,2.8,15.4,33,0.00,,,0.00,WSDL version 420,2013-03-16 15:10:00,
2013-03-16 11:15:00,67.2,36.9,29.95,SE,127,5.5,9.8,32,0.00,,,0.00,WSDL version 420,2013-03-16 15:15:00,
2013-03-16 11:20:00,67.4,37.4,29.95,SE,135,3.6,9.8,33,0.00,,,0.00,WSDL version 420,2013-03-16 15:20:00,
2013-03-16 11:25:00,67.6,36.8,29.95,South,183,2.6,14.5,33,0.00,,,0.00,WSDL version 420,2013-03-16 15:25:00,
2013-03-16 11:30:00,68.0,37.1,29.95,SW,228,2.7,14.5,33,0.00,,,0.00,WSDL version 420,2013-03-16 15:30:00,
2013-03-16 11:35:00,68.5,36.2,29.94,ENE,59,4.8,8.5,30,0.00,,,0.00,WSDL version 420,2013-03-16 15:35:00,
2013-03-16 11:40:00,68.5,37.3,29.94,North,353,1.6,8.5,31,0.00,,,0.00,WSDL version 420,2013-03-16 15:40:00,
2013-03-16 11:45:00,69.1,37.2,29.94,SW,222,1.9,6.3,32,0.00,,,0.00,WSDL version 420,2013-03-16 15:45:00,
2013-03-16 11:50:00,69.7,37.7,29.91,SE,124,1.5,6.3,32,0.00,,,0.00,WSDL version 420,2013-03-16 15:50:00,
2013-03-16 11:55:00,69.9,37.5,29.91,SW,214,1.8,7.6,29,0.00,,,0.00,WSDL version 420,2013-03-16 15:55:00,
2013-03-16 12:00:00,69.7,36.4,29.91,North,349,4.6,7.6,29,0.00,,,0.00,WSDL version 420,2013-03-16 16:00:00,
2013-03-16 12:05:00,69.8,36.1,29.91,WSW,250,3.0,8.7,30,0.00,,,0.00,WSDL version 420,2013-03-16 16:05:00,
2013-03-16 12:10:00,70.4,36.9,29.91,South,190,4.6,8.7,28,0.00,,,0.00,WSDL version 420,2013-03-16 16:10:00,
2013-03-16 12:15:00,70.0,35.9,29.91,SE,125,3.3,9.8,28,0.00,,,0.00,WSDL version 420,2013-03-16 16:15:00,
2013-03-16 12:21:00,69.8,35.7,29.91,WNW,284,5.3,11.0,29,0.00,,,0.00,WSDL version 420,2013-03-16 16:21:00,
2013-03-16 12:30:00,69.9,36.9,29.91,North,354,6.5,11.0,28,0.00,,,0.00,WSDL version 420,2013-03-16 16:30:00,
2013-03-16 12:35:00,69.6,36.0,29.91,North,3,3.3,11.0,29,0.00,,,0.00,WSDL version 420,2013-03-16 16:35:00,
2013-03-16 12:40:00,69.7,35.9,29.91,East,90,5.7,12.5,29,0.00,,,0.00,WSDL version 420,2013-03-16 16:40:00,
2013-03-16 12:45:00,69.9,36.2,29.91,ESE,103,2.7,12.5,29,0.00,,,0.00,WSDL version 420,2013-03-16 16:45:00,
2013-03-16 12:50:00,70.7,36.9,29.91,South,175,2.7,11.9,29,0.00,,,0.00,WSDL version 420,2013-03-16 16:50:00,
2013-03-16 12:55:00,71.0,37.1,29.91,North,10,2.6,7.6,29,0.00,,,0.00,WSDL version 420,2013-03-16 16:55:00,
2013-03-16 13:00:00,70.7,36.6,29.91,East,100,4.3,15.4,28,0.00,,,0.00,WSDL version 420,2013-03-16 17:00:00,
2013-03-16 13:05:00,70.6,36.0,29.91,East,84,4.5,15.4,27,0.00,,,0.00,WSDL version 420,2013-03-16 17:05:00,
2013-03-16 13:10:00,71.5,36.1,29.91,SSW,211,3.6,7.8,27,0.00,,,0.00,WSDL version 420,2013-03-16 17:10:00,
2013-03-16 13:15:00,71.7,35.3,29.91,SSE,148,4.8,13.2,27,0.00,,,0.00,WSDL version 420,2013-03-16 17:15:00,
2013-03-16 13:20:00,72.0,36.1,29.91,SE,135,3.0,13.2,26,0.00,,,0.00,WSDL version 420,2013-03-16 17:20:00,
2013-03-16 13:25:00,72.2,35.3,29.91,SE,124,4.1,9.8,26,0.00,,,0.00,WSDL version 420,2013-03-16 17:25:00,
2013-03-16 13:30:00,72.3,34.8,29.91,SE,146,4.0,8.7,25,0.00,,,0.00,WSDL version 420,2013-03-16 17:30:00,
2013-03-16 13:35:00,72.1,34.4,29.91,NE,34,3.7,8.9,25,0.00,,,0.00,WSDL version 420,2013-03-16 17:35:00,
2013-03-16 13:40:00,72.3,34.7,29.91,North,10,6.2,12.3,25,0.00,,,0.00,WSDL version 420,2013-03-16 17:40:00,
2013-03-16 13:45:00,72.5,34.1,29.91,NE,50,3.3,12.3,24,0.00,,,0.00,WSDL version 420,2013-03-16 17:45:00,
2013-03-16 13:50:00,73.0,34.3,29.88,NW,309,3.5,7.8,24,0.00,,,0.00,WSDL version 420,2013-03-16 17:50:00,
2013-03-16 13:55:00,73.1,34.2,29.88,SSE,167,5.8,7.8,24,0.00,,,0.00,WSDL version 420,2013-03-16 17:55:00,
2013-03-16 14:00:00,73.2,34.1,29.88,SE,129,3.6,8.7,23,0.00,,,0.00,WSDL version 420,2013-03-16 18:00:00,
2013-03-16 14:05:00,73.8,33.9,29.91,NNW,338,3.8,10.1,24,0.00,,,0.00,WSDL version 420,2013-03-16 18:05:00,
2013-03-16 14:10:00,74.1,33.9,29.91,NNE,23,4.1,10.1,23,0.00,,,0.00,WSDL version 420,2013-03-16 18:10:00,
2013-03-16 14:15:00,73.9,33.8,29.91,SE,132,5.7,9.8,23,0.00,,,0.00,WSDL version 420,2013-03-16 18:15:00,
2013-03-16 14:21:00,74.2,34.0,29.88,NE,39,1.9,12.3,23,0.00,,,0.00,WSDL version 420,2013-03-16 18:21:00,
2013-03-16 14:30:00,74.7,33.4,29.88,ESE,109,4.7,7.6,22,0.00,,,0.00,WSDL version 420,2013-03-16 18:30:00,
2013-03-16 14:35:00,74.6,33.5,29.88,SSW,205,3.5,9.2,22,0.00,,,0.00,WSDL version 420,2013-03-16 18:35:00,
2013-03-16 14:40:00,74.3,33.2,29.88,WNW,284,4.5,15.4,22,0.00,,,0.00,WSDL version 420,2013-03-16 18:40:00,
2013-03-16 14:45:00,74.0,33.0,29.88,South,185,2.7,15.4,23,0.00,,,0.00,WSDL version 420,2013-03-16 18:45:00,
2013-03-16 14:50:00,74.1,33.1,29.88,South,177,4.3,10.5,22,0.00,,,0.00,WSDL version 420,2013-03-16 18:50:00,
2013-03-16 14:55:00,75.3,33.9,29.88,ENE,78,2.7,10.5,22,0.00,,,0.00,WSDL version 420,2013-03-16 18:55:00,
2013-03-16 15:00:00,76.1,34.5,29.88,ESE,103,2.6,5.6,22,0.00,,,0.00,WSDL version 420,2013-03-16 19:00:00,
2013-03-16 15:05:00,76.8,34.9,29.88,SE,135,3.2,7.6,22,0.00,,,0.00,WSDL version 420,2013-03-16 19:05:00,
2013-03-16 15:10:00,76.4,34.4,29.88,East,100,3.8,7.6,22,0.00,,,0.00,WSDL version 420,2013-03-16 19:10:00,
2013-03-16 15:15:00,76.7,34.8,29.88,ENE,74,5.1,7.2,21,0.00,,,0.00,WSDL version 420,2013-03-16 19:15:00,
2013-03-16 15:20:00,76.8,34.5,29.87,East,90,3.2,8.1,21,0.00,,,0.00,WSDL version 420,2013-03-16 19:20:00,
2013-03-16 15:25:00,75.8,33.5,29.88,ESE,119,3.1,13.2,21,0.00,,,0.00,WSDL version 420,2013-03-16 19:25:00,
2013-03-16 15:30:00,75.8,33.6,29.88,ESE,121,4.1,13.2,22,0.00,,,0.00,WSDL version 420,2013-03-16 19:30:00,
2013-03-16 15:35:00,75.9,34.0,29.84,SW,215,3.4,11.2,22,0.00,,,0.00,WSDL version 420,2013-03-16 19:35:00,
2013-03-16 15:40:00,76.3,34.7,29.84,SE,141,3.1,14.8,22,0.00,,,0.00,WSDL version 420,2013-03-16 19:40:00,
2013-03-16 15:45:00,76.6,34.8,29.84,South,190,5.4,14.8,22,0.00,,,0.00,WSDL version 420,2013-03-16 19:45:00,
2013-03-16 15:50:00,75.6,33.2,29.88,West,281,4.0,13.0,21,0.00,,,0.00,WSDL version 420,2013-03-16 19:50:00,
2013-03-16 15:55:00,75.2,33.2,29.88,ESE,120,3.6,13.0,22,0.00,,,0.00,WSDL version 420,2013-03-16 19:55:00,
2013-03-16 16:00:00,75.3,33.4,29.88,ESE,113,5.6,11.0,22,0.00,,,0.00,WSDL version 420,2013-03-16 20:00:00,
2013-03-16 16:06:00,75.3,33.6,29.88,West,278,4.5,11.0,22,0.00,,,0.00,WSDL version 420,2013-03-16 20:06:00,
2013-03-16 16:15:00,73.9,32.7,29.88,SSE,158,1.3,10.7,22,0.00,,,0.00,WSDL version 420,2013-03-16 20:15:00,
2013-03-16 16:20:00,73.8,32.6,29.84,ENE,60,4.7,9.6,22,0.00,,,0.00,WSDL version 420,2013-03-16 20:20:00,
2013-03-16 16:25:00,73.6,32.5,29.84,East,90,2.2,9.6,22,0.00,,,0.00,WSDL version 420,2013-03-16 20:25:00,
2013-03-16 16:30:00,73.7,32.5,29.84,ESE,105,2.9,7.2,22,0.00,,,0.00,WSDL version 420,2013-03-16 20:30:00,
2013-03-16 16:35:00,73.4,32.5,29.84,SW,217,3.6,10.7,23,0.00,,,0.00,WSDL version 420,2013-03-16 20:35:00,
2013-03-16 16:40:00,72.7,31.9,29.84,East,80,4.6,10.7,22,0.00,,,0.00,WSDL version 420,2013-03-16 20:40:00,
2013-03-16 16:45:00,72.7,31.9,29.84,SSE,152,3.1,10.7,23,0.00,,,0.00,WSDL version 420,2013-03-16 20:45:00,
2013-03-16 16:50:00,72.7,32.8,29.84,SSW,203,3.1,11.0,23,0.00,,,0.00,WSDL version 420,2013-03-16 20:50:00,
2013-03-16 16:55:00,73.0,33.1,29.84,SSE,148,3.9,11.0,23,0.00,,,0.00,WSDL version 420,2013-03-16 20:55:00,
2013-03-16 17:00:00,72.7,31.9,29.84,East,93,3.5,9.8,23,0.00,,,0.00,WSDL version 420,2013-03-16 21:00:00,
2013-03-16 17:05:00,72.7,32.2,29.87,WSW,253,3.9,12.1,23,0.00,,,0.00,WSDL version 420,2013-03-16 21:05:00,
2013-03-16 17:10:00,72.2,32.4,29.87,SE,129,1.7,12.1,23,0.00,,,0.00,WSDL version 420,2013-03-16 21:10:00,
2013-03-16 17:15:00,72.1,32.1,29.87,East,79,4.1,12.1,23,0.00,,,0.00,WSDL version 420,2013-03-16 21:15:00,
2013-03-16 17:20:00,71.6,31.9,29.84,ENE,75,3.8,12.1,23,0.00,,,0.00,WSDL version 420,2013-03-16 21:20:00,
2013-03-16 17:26:00,71.5,31.8,29.84,East,93,2.2,7.6,23,0.00,,,0.00,WSDL version 420,2013-03-16 21:26:00,
2013-03-16 17:35:00,71.8,32.0,29.84,NW,307,5.1,10.5,23,0.00,,,0.00,WSDL version 420,2013-03-16 21:35:00,
2013-03-16 17:40:00,72.0,32.2,29.84,West,280,1.4,10.5,23,0.00,,,0.00,WSDL version 420,2013-03-16 21:40:00,
2013-03-16 17:45:00,71.8,32.1,29.84,ESE,113,4.1,7.4,23,0.00,,,0.00,WSDL version 420,2013-03-16 21:45:00,
2013-03-16 17:50:00,71.9,32.2,29.87,WNW,285,2.9,6.5,23,0.00,,,0.00,WSDL version 420,2013-03-16 21:50:00,
2013-03-16 17:55:00,71.6,32.1,29.87,East,82,2.5,8.5,24,0.00,,,0.00,WSDL version 420,2013-03-16 21:55:00,
2013-03-16 18:00:00,71.2,32.5,29.87,East,90,3.5,8.5,24,0.00,,,0.00,WSDL version 420,2013-03-16 22:00:00,
2013-03-16 18:05:00,71.1,32.5,29.87,WNW,293,3.0,8.1,24,0.00,,,0.00,WSDL version 420,2013-03-16 22:05:00,
2013-03-16 18:10:00,70.9,32.4,29.87,SSE,158,2.7,8.1,24,0.00,,,0.00,WSDL version 420,2013-03-16 22:10:00,
2013-03-16 18:15:00,70.6,32.1,29.87,SSE,155,4.1,8.7,24,0.00,,,0.00,WSDL version 420,2013-03-16 22:15:00,
2013-03-16 18:20:00,70.2,31.9,29.87,ESE,115,3.4,10.3,25,0.00,,,0.00,WSDL version 420,2013-03-16 22:20:00,
2013-03-16 18:25:00,70.0,31.6,29.87,East,90,3.9,10.3,24,0.00,,,0.00,WSDL version 420,2013-03-16 22:25:00,
2013-03-16 18:30:00,69.8,31.7,29.87,East,80,4.0,8.1,25,0.00,,,0.00,WSDL version 420,2013-03-16 22:30:00,
2013-03-16 18:35:00,69.4,32.1,29.87,ENE,76,4.0,7.8,25,0.00,,,0.00,WSDL version 420,2013-03-16 22:35:00,
2013-03-16 18:40:00,69.0,32.0,29.87,ESE,113,2.2,7.8,25,0.00,,,0.00,WSDL version 420,2013-03-16 22:40:00,
2013-03-16 18:45:00,68.9,32.3,29.87,East,90,4.9,7.8,26,0.00,,,0.00,WSDL version 420,2013-03-16 22:45:00,
2013-03-16 18:50:00,68.6,32.4,29.87,East,98,5.2,8.7,26,0.00,,,0.00,WSDL version 420,2013-03-16 22:50:00,
2013-03-16 18:55:00,68.3,32.1,29.88,ESE,113,3.6,8.7,26,0.00,,,0.00,WSDL version 420,2013-03-16 22:55:00,
2013-03-16 19:00:00,68.1,32.2,29.88,East,88,4.3,7.4,26,0.00,,,0.00,WSDL version 420,2013-03-16 23:00:00,
2013-03-16 19:05:00,67.9,32.8,29.88,ENE,63,3.4,7.4,28,0.00,,,0.00,WSDL version 420,2013-03-16 23:05:00,
2013-03-16 19:10:00,67.7,33.0,29.88,East,90,4.0,7.4,28,0.00,,,0.00,WSDL version 420,2013-03-16 23:10:00,
2013-03-16 19:15:00,67.5,33.4,29.88,NE,53,2.4,9.4,29,0.00,,,0.00,WSDL version 420,2013-03-16 23:15:00,
2013-03-16 19:20:00,67.2,34.0,29.91,WSW,245,5.9,13.0,30,0.00,,,0.00,WSDL version 420,2013-03-16 23:20:00,
2013-03-16 19:26:00,67.0,34.3,29.91,South,172,2.9,13.0,30,0.00,,,0.00,WSDL version 420,2013-03-16 23:26:00,
2013-03-16 19:35:00,66.8,35.0,29.91,ENE,59,3.1,7.6,31,0.00,,,0.00,WSDL version 420,2013-03-16 23:35:00,
2013-03-16 19:40:00,66.7,35.1,29.91,NNE,17,2.9,7.6,31,0.00,,,0.00,WSDL version 420,2013-03-16 23:40:00,
2013-03-16 19:45:00,66.5,35.6,29.91,WNW,302,2.7,7.6,32,0.00,,,0.00,WSDL version 420,2013-03-16 23:45:00,
2013-03-16 19:50:00,66.2,36.2,29.91,NE,35,4.7,8.7,33,0.00,,,0.00,WSDL version 420,2013-03-16 23:50:00,
2013-03-16 19:55:00,65.8,36.0,29.91,South,172,3.8,8.7,33,0.00,,,0.00,WSDL version 420,2013-03-16 23:55:00,
2013-03-16 20:00:00,65.4,36.2,29.91,WSW,248,2.5,7.6,34,0.00,,,0.00,WSDL version 420,2013-03-17 00:00:00,
2013-03-16 20:05:00,64.9,35.9,29.91,SW,233,3.0,7.6,34,0.00,,,0.00,WSDL version 420,2013-03-17 00:05:00,
2013-03-16 20:10:00,64.6,35.6,29.91,WSW,245,1.0,6.5,34,0.00,,,0.00,WSDL version 420,2013-03-17 00:10:00,
2013-03-16 20:15:00,64.4,35.5,29.91,ESE,115,2.5,6.0,34,0.00,,,0.00,WSDL version 420,2013-03-17 00:15:00,
2013-03-16 20:20:00,64.3,35.9,29.95,SW,214,2.9,5.8,35,0.00,,,0.00,WSDL version 420,2013-03-17 00:20:00,
2013-03-16 20:25:00,64.3,36.1,29.95,NE,53,1.7,5.8,35,0.00,,,0.00,WSDL version 420,2013-03-17 00:25:00,
2013-03-16 20:30:00,64.0,36.2,29.95,SSW,199,3.3,8.5,35,0.00,,,0.00,WSDL version 420,2013-03-17 00:30:00,
2013-03-16 20:35:00,64.0,36.3,29.94,WNW,298,2.9,8.9,36,0.00,,,0.00,WSDL version 420,2013-03-17 00:35:00,
2013-03-16 20:40:00,63.7,35.7,29.95,SSW,200,0.9,8.9,35,0.00,,,0.00,WSDL version 420,2013-03-17 00:40:00,
2013-03-16 20:45:00,63.5,35.7,29.95,NE,40,3.0,6.3,36,0.00,,,0.00,WSDL version 420,2013-03-17 00:45:00,
2013-03-16 20:50:00,63.3,35.9,29.98,WNW,285,1.8,5.6,36,0.00,,,0.00,WSDL version 420,2013-03-17 00:50:00,
2013-03-16 20:55:00,63.4,36.0,29.98,ENE,65,0.4,6.0,36,0.00,,,0.00,WSDL version 420,2013-03-17 00:55:00,
2013-03-16 21:00:00,63.2,36.1,29.98,NNW,345,3.8,8.7,37,0.00,,,0.00,WSDL version 420,2013-03-17 01:00:00,
2013-03-16 21:05:00,63.0,36.3,29.98,WNW,290,4.1,8.7,37,0.00,,,0.00,WSDL version 420,2013-03-17 01:05:00,
2013-03-16 21:10:00,62.8,36.2,29.98,SW,235,0.9,7.6,37,0.00,,,0.00,WSDL version 420,2013-03-17 01:10:00,
2013-03-16 21:15:00,62.6,36.1,29.98,WNW,293,2.2,6.5,38,0.00,,,0.00,WSDL version 420,2013-03-17 01:15:00,
2013-03-16 21:20:00,62.3,35.9,29.98,ENE,65,1.2,6.5,37,0.00,,,0.00,WSDL version 420,2013-03-17 01:20:00,
2013-03-16 21:25:00,62.0,36.4,29.98,WSW,256,3.0,5.8,39,0.00,,,0.00,WSDL version 420,2013-03-17 01:25:00,
2013-03-16 21:31:00,62.0,36.4,29.98,WSW,239,1.7,5.8,39,0.00,,,0.00,WSDL version 420,2013-03-17 01:31:00,
2013-03-16 21:40:00,61.7,36.3,29.98,SSW,203,2.7,6.0,39,0.00,,,0.00,WSDL version 420,2013-03-17 01:40:00,
2013-03-16 21:45:00,61.5,36.4,29.98,WSW,240,2.5,6.0,39,0.00,,,0.00,WSDL version 420,2013-03-17 01:45:00,
2013-03-16 21:50:00,61.2,36.1,29.98,WNW,293,0.4,4.9,39,0.00,,,0.00,WSDL version 420,2013-03-17 01:50:00,
2013-03-16 21:55:00,60.9,36.0,29.98,WSW,250,0.0,2.9,39,0.00,,,0.00,WSDL version 420,2013-03-17 01:55:00,
2013-03-16 22:00:00,60.7,36.4,29.97,West,273,3.9,7.2,41,0.00,,,0.00,WSDL version 420,2013-03-17 02:00:00,
2013-03-16 22:05:00,60.7,36.4,29.97,NNW,338,0.0,7.2,40,0.00,,,0.00,WSDL version 420,2013-03-17 02:05:00,
2013-03-16 22:10:00,60.6,36.3,29.97,SSW,209,0.9,3.1,41,0.00,,,0.00,WSDL version 420,2013-03-17 02:10:00,
2013-03-16 22:15:00,60.5,36.7,29.97,WNW,298,3.4,6.0,42,0.00,,,0.00,WSDL version 420,2013-03-17 02:15:00,
2013-03-16 22:20:00,60.4,36.6,29.97,West,265,1.8,6.0,41,0.00,,,0.00,WSDL version 420,2013-03-17 02:20:00,
2013-03-16 22:25:00,60.5,36.9,29.97,NNE,14,0.4,3.8,41,0.00,,,0.00,WSDL version 420,2013-03-17 02:25:00,
2013-03-16 22:30:00,60.1,36.8,29.97,West,280,0.5,3.6,42,0.00,,,0.00,WSDL version 420,2013-03-17 02:30:00,
2013-03-16 22:35:00,59.9,36.7,29.97,West,260,1.5,4.3,42,0.00,,,0.00,WSDL version 420,2013-03-17 02:35:00,
2013-03-16 22:40:00,59.4,36.8,29.97,East,82,1.3,4.3,44,0.00,,,0.00,WSDL version 420,2013-03-17 02:40:00,
2013-03-16 22:45:00,59.8,37.0,29.97,WSW,245,1.6,4.3,42,0.00,,,0.00,WSDL version 420,2013-03-17 02:45:00,
2013-03-16 22:50:00,59.1,36.3,29.97,SE,135,1.0,4.3,43,0.00,,,0.00,WSDL version 420,2013-03-17 02:50:00,
2013-03-16 22:55:00,58.9,36.7,29.97,North,10,0.5,2.7,44,0.00,,,0.00,WSDL version 420,2013-03-17 02:55:00,
2013-03-16 23:00:00,58.0,36.0,29.97,SW,233,0.7,2.2,45,0.00,,,0.00,WSDL version 420,2013-03-17 03:00:00,
2013-03-16 23:05:00,57.3,35.8,29.97,WNW,293,1.2,2.7,45,0.00,,,0.00,WSDL version 420,2013-03-17 03:05:00,
2013-03-16 23:10:00,57.1,36.0,29.97,West,278,0.7,2.7,45,0.00,,,0.00,WSDL version 420,2013-03-17 03:10:00,
2013-03-16 23:16:00,56.8,36.3,29.97,NNW,346,0.6,3.6,47,0.00,,,0.00,WSDL version 420,2013-03-17 03:16:00,
2013-03-16 23:25:00,57.0,36.4,30.00,ESE,121,0.0,2.9,46,0.00,,,0.00,WSDL version 420,2013-03-17 03:25:00,
2013-03-16 23:30:00,56.6,36.6,30.00,NNW,343,1.0,2.9,47,0.00,,,0.00,WSDL version 420,2013-03-17 03:30:00,
2013-03-16 23:35:00,56.1,36.2,30.00,SW,222,1.6,3.8,47,0.00,,,0.00,WSDL version 420,2013-03-17 03:35:00,
2013-03-16 23:40:00,55.5,35.7,30.00,WSW,256,0.4,3.8,47,0.00,,,0.00,WSDL version 420,2013-03-17 03:40:00,
2013-03-16 23:45:00,55.2,35.8,30.00,West,268,0.9,5.4,48,0.00,,,0.00,WSDL version 420,2013-03-17 03:45:00,
2013-03-16 23:50:00,55.0,35.7,30.00,West,267,0.0,5.4,48,0.00,,,0.00,WSDL version 420,2013-03-17 03:50:00,
2013-03-16 23:55:00,54.9,36.0,30.00,WSW,245,0.4,3.4,49,0.00,,,0.00,WSDL version 420,2013-03-17 03:55:00,